Regional Weather Roundup
Issued by NWS

Home | Current Version | Previous Version | Graphics & Text | Print | Product List | Glossary On
Versions: 1 2 3 4 5 6 7 8 9 10 11 12 13 14 15 16 17 18 19 20 21 22 23 24 25 26 27 28 29 30 31 32 33 34 35 36 37 38 39 40 41 42 43 44 45 46 47 48 49 50
000
ASUS43 KLMK 260202
RWRKY
KENTUCKY REGIONAL WEATHER ROUNDUP
NATIONAL WEATHER SERVICE LOUISVILLE KY
900 PM EST SAT FEB 25 2017

NOTE "FAIR" INDICATES FEW OR NO CLOUDS BELOW 12,000 FEET
WITH NO SIGNIFICANT WEATHER AND/OR OBSTRUCTIONS TO VISIBILITY.

KYZ001>023-026-027-061>063-070>075-260300-
WESTERN AND SOUTH CENTRAL KENTUCKY

CITY           SKY/WX    TMP DP  RH WIND       PRES   REMARKS
PADUCAH        CLEAR     31  20  63 CALM      30.12R
HENDERSON      CLEAR     30  16  55 CALM      30.12R
OWENSBORO      CLEAR     31  22  69 CALM      30.12R
HOPKINSVILLE   CLEAR     36  19  49 CALM      30.12R
BOWLING GREEN  CLEAR     37  18  46 NW5       30.12R WCI  33
GLASGOW        NOT AVBL
$$

KYZ024-025-028>034-038-045-046-053-260300-
NORTH CENTRAL KENTUCKY

CITY           SKY/WX    TMP DP  RH WIND       PRES   REMARKS
LOUISVILLE/SDF CLEAR     33  16  49 W8        30.09R WCI  26
LOUISVILLE/LOU CLEAR     35  16  45 W9        30.09R WCI  28
FORT KNOX      CLEAR     30  17  60 W5        30.07R WCI  25
$$

KYZ035>037-039>044-047>052-055>060-089>105-260300-
NORTHEAST KENTUCKY

CITY           SKY/WX    TMP DP  RH WIND       PRES   REMARKS
LEXINGTON      CLOUDY    34  20  56 W6        30.06R WCI  29
COVINGTON      CLOUDY    30  16  56 W8        30.04R WCI  22
FRANKFORT      MOCLDY    34  17  50 W5        30.06R WCI  30
$$

KYZ054-064>069-076>088-106>120-260300-
SOUTHEAST KENTUCKY

CITY           SKY/WX    TMP DP  RH WIND       PRES   REMARKS
JACKSON        CLEAR     31  19  61 VRB3      30.04R
LONDON         CLEAR     32  18  56 NW3       30.07R
SOMERSET       CLEAR     32  19  59 CALM      30.10R
MIDDLESBORO    CLEAR     36  21  55 N8        30.07R WCI  29
MONTICELLO     CLEAR     31  22  69 NW3       30.11R
$$





USA.gov is the U.S. government's official web portal to all federal, state and local government web resources and services.